Regional Weather Roundup
Issued by NWS Spokane, WA

Home | Current Version | Previous Version | Text Only | Print | Product List | Glossary On
Versions: 1 2 3 4 5 6 7 8 9 10 11 12 13 14 15 16 17 18 19 20 21 22 23 24 25 26 27 28 29 30 31 32 33 34 35 36 37 38 39 40 41 42 43 44 45 46 47 48 49 50
120
NZUS01 KOTX 061510
RWROTX
EASTERN WASHINGTON/NORTHERN IDAHO ROUNDUP
NATIONAL WEATHER SERVICE, SPOKANE WA
700 AM PST SAT FEB 06 2016

Note: "fair" indicated few or no clouds below 12,000 feet with no
significant weather and/or obstructions to visibility.

...NORTHEAST WASHINGTON AND NORTHERN IDAHO PANHANDLE...

CITY           SKY/WX    TMP DP  RH WIND       PRES   REMARKS
SPOKANE INTL   MOCLDY    34  28  79 SW20      30.24R WCI  23
SPOKANE DOWNTO PTCLDY    37  29  72 SW8       30.26R
COEUR D ALENE  PTCLDY    36  28  75 W12       30.23R
DEER PARK      PTCLDY    33  28  81 S12       30.24R WCI  24
SANDPOINT      PTCLDY    36  30  80 SW9       30.20R
BONNERS FERRY  FAIR      37  28  70 S12G18    30.13R

...SOUTHEAST WASHINGTON AND SOUTHERN IDAHO PANHANDLE...

CITY           SKY/WX    TMP DP  RH WIND       PRES   REMARKS
WALLA WALLA    CLOUDY    43  32  65 SW17      30.37S
PULLMAN/MOSCOW CLOUDY    37  29  72 W22G32    30.29R
LEWISTON       MOCLDY    47  26  44 W22G35    30.31R
LOWELL           N/A     37  35  92 CALM      30.36R

...COLUMBIA BASIN...

CITY           SKY/WX    TMP DP  RH WIND       PRES   REMARKS
EPHRATA        PTCLDY    35  28  75 SW9       30.27R WCI  28
MOSES LAKE     CLEAR     37  30  75 S10       30.29R
TRI CITIES     MOCLDY    44  33  65 SW17      30.36R
HERMISTON      MOCLDY    41  33  73 S13       30.38R
PENDLETON      CLOUDY    41  31  67 S8        30.38R

...EAST SLOPES CASCADES...

CITY           SKY/WX    TMP DP  RH WIND       PRES   REMARKS
THE DALLES     PTCLDY    45  33  63 W13       30.40R
YAKIMA         CLEAR     36  26  67 CALM      30.31R
ELLENSBURG     PTCLDY    35  29  78 NW14      30.28R WCI  26
WENATCHEE      CLEAR     39  30  70 VRB5      30.26R
OMAK           PTCLDY    33  25  72 S6        30.25R WCI  28

...SOUTHERN BRITISH COLUMBIA...

CITY           SKY/WX    TMP DP  RH WIND       PRES   REMARKS
PENTICTON      PTCLDY    39  30  70 S10       30.21R
CASTLEGAR      PTCLDY    37  30  75 S3        30.16R
CRANBROOK      MOCLDY    41  16  36 VRB8G26   29.94R

...WESTERN MONTANA...

CITY           SKY/WX    TMP DP  RH WIND       PRES   REMARKS
MISSOULA       PTCLDY    36  27  69 NW14      30.19R

...NEIGHBORING CITIES...

CITY           SKY/WX    TMP DP  RH WIND       PRES   REMARKS
SEATTLE        MOCLDY    43  39  86 S18       30.40R
CALGARY        MOCLDY    41  18  38 NW14G28   29.58R



USA.gov is the U.S. government's official web portal to all federal, state and local government web resources and services.